Regional Weather Roundup
Issued by NWS

Home | Current Version | Previous Version | Text Only | Print | Product List | Glossary On
Versions: 1 2 3 4 5 6 7 8 9 10 11 12 13 14 15 16 17 18 19 20 21 22 23 24 25 26 27 28 29 30 31 32 33 34 35 36 37 38 39 40 41 42 43 44 45 46 47 48 49 50
000
ASUS43 KOAX 310810
RWRNE

WEATHER ROUNDUP FOR NEBRASKA
NATIONAL WEATHER SERVICE OMAHA NE
300 AM CDT SUN AUG 31 2014

NOTES: SATELLITE DATA IS BEING USED TO AUGMENT CLOUD COVER ABOVE
       12000 FEET.
       "FAIR" INDICATES FEW OR NO CLOUDS BELOW 12,000 FEET WITH NO
       SIGNIFICANT WEATHER AND/OR OBSTRUCTIONS TO VISIBILITY.

  * THESE STATIONS DO NOT REPORT WEATHER SUCH AS RAIN...SNOW OR FOG.

NEZ001>004-019>022-054>056-310900-
NEBRASKA PANHANDLE

CITY           SKY/WX    TMP DP  RH WIND       PRES   REMARKS
SCOTTSBLUFF    PTCLDY    59  52  77 E3        29.86F
ALLIANCE       PTCLDY    56  51  84 W7        29.84F
CHADRON        PTCLDY    58  53  84 S6        29.80F
KIMBALL        MOCLDY    58  49  71 W3        29.89F
SIDNEY         PTCLDY    58  48  69 NW7       29.88F
$$

NEZ057>060-069>072-079>082-310900-
SOUTHWEST NEBRASKA

CITY           SKY/WX    TMP DP  RH WIND       PRES   REMARKS
NORTH PLATTE   MOCLDY    64  58  80 E6        29.79F
IMPERIAL       CLOUDY    67  57  70 S3        29.81F
LEXINGTON      PTCLDY    71  59  64 S12       29.80F
MCCOOK         PTCLDY    72  56  57 SW12      29.82F
OGALLALA       CLOUDY    64  56  75 NW5       29.80S
$$

NEZ005>010-023>029-035>040-094-310900-
NORTH CENTRAL NEBRASKA

CITY           SKY/WX    TMP DP  RH WIND       PRES   REMARKS
VALENTINE      CLOUDY    72  58  61 SW7       29.74S
AINSWORTH      DRIZZLE   72  58  61 SW10      29.78R
BROKEN BOW     MOCLDY    66  59  78 NW3       29.82F
O`NEILL        MOCLDY    70  65  82 S8        29.76F
ORD            CLEAR     66  61  84 S7        29.79S
THEDFORD       CLOUDY    69  58  67 SE8       29.76F
$$

NEZ041-046>049-061>064-073>077-083>087-310900-
SOUTH CENTRAL NEBRASKA

CITY           SKY/WX    TMP DP  RH WIND       PRES   REMARKS
GRAND ISLAND   CLEAR     68  62  81 S10       29.81F
AURORA         CLEAR     67  64  89 S9        29.81F
HASTINGS       CLEAR     70  58  65 S10       29.82F
HEBRON         CLEAR     67  60  77 S6        29.83S
HOLDREGE       CLEAR     68  59  73 CALM      29.82F
KEARNEY *      CLEAR     68  59  73 S10       29.81F
YORK           CLEAR     66 N/A N/A S8        29.82F
$$

NEZ011>018-030>034-042>045-310900-
NORTHEAST NEBRASKA

CITY           SKY/WX    TMP DP  RH WIND       PRES   REMARKS
NORFOLK        CLEAR     69  63  81 S13       29.78F
ALBION         CLEAR     65  61  89 SE6       29.79F
BLAIR          CLEAR     71  65  82 S9        29.84S
FREMONT        CLEAR     71  65  80 SE7       29.83S
TEKAMAH        CLEAR     65  63  93 S5        29.82F
WAYNE          CLEAR     67  64  91 S10       29.79F
$$

NEZ050>053-065>068-078-088>093-310900-
SOUTHEAST NEBRASKA

CITY           SKY/WX    TMP DP  RH WIND       PRES   REMARKS
LINCOLN        CLEAR     68  64  87 S8        29.83F
OMAHA EPPLEY   CLEAR     71  65  81 S8        29.84S
BEATRICE       CLEAR     70  65  82 S8        29.84S
FALLS CITY     CLEAR     69  66  90 SE8       29.85F
NEBRASKA CITY  CLEAR     68  68 100 S7        29.85S
PLATTSMOUTH    CLEAR     71  65  83 S8        29.84F
$$

NEZ044-045-051>053-067-310900-
OMAHA AREA

CITY           SKY/WX    TMP DP  RH WIND       PRES   REMARKS
OMAHA EPPLEY   CLEAR     71  65  81 S8        29.84S
BLAIR          CLEAR     71  65  82 S9        29.84S
FREMONT        CLEAR     71  65  80 SE7       29.83S
MILLARD        CLEAR     70  66  87 E3        29.83F
OFFUTT AFB     CLEAR     69  69  99 E6        29.84S
PLATTSMOUTH    CLEAR     71  65  83 S8        29.84F
WAHOO          FAIR      67  64  89 SE6       29.83S
$$



USA.gov is the U.S. government's official web portal to all federal, state and local government web resources and services.